When you browse on this site, cookies collect data to enhance your experience and personalize the content and advertising you see.
Visit our Privacy Policy to learn more. By continuing to use the site, you agree to this use of cookies and data.
  • In Czech Republic
  • List of Countries
  • For 7 days
  • Water Temperature
  • Weather Map
  • Weather Widgets
  • user-avatar
    Login

    Hourly Weather Buenos Aires

    Today, 18 September, Wednesday

    Time Temperature Precipitation Wind Pressure Humidity
    00:00 +14°C° 0 mm 4 mps 756 mmHg 57%
    01:00 +14°C° 0 mm 4 mps 757 mmHg 60%
    02:00 +13°C° 0 mm 4 mps 757 mmHg 62%
    03:00 +13°C° 0 mm 3 mps 757 mmHg 61%
    04:00 +14°C° 0 mm 2 mps 757 mmHg 60%
    05:00 +13°C° 0 mm 2 mps 758 mmHg 59%
    06:00 +14°C° 0 mm 2 mps 758 mmHg 55%
    07:00 +14°C° 0 mm 2 mps 758 mmHg 52%
    08:00 +14°C° 0 mm 3 mps 758 mmHg 49%
    09:00 +17°C° 0 mm 2 mps 758 mmHg 41%
    10:00 +19°C° 0 mm 2 mps 758 mmHg 34%
    11:00 +22°C° 0 mm 1 mps 758 mmHg 27%
    12:00 +23°C° 0 mm 2 mps 757 mmHg 27%
    13:00 +23°C° 0 mm 2 mps 756 mmHg 26%
    14:00 +24°C° 0 mm 3 mps 755 mmHg 26%
    15:00 +22°C° 0 mm 3 mps 755 mmHg 31%
    16:00 +21°C° 0 mm 3 mps 754 mmHg 36%
    17:00 +21°C° 0 mm 3 mps 753 mmHg 40%
    18:00 +20°C° 0 mm 4 mps 753 mmHg 47%
    19:00 +19°C° 0 mm 5 mps 753 mmHg 54%
    20:00 +17°C° 0 mm 5 mps 753 mmHg 60%
    21:00 +17°C° 0 mm 5 mps 753 mmHg 62%
    22:00 +17°C° 0 mm 5 mps 753 mmHg 64%
    23:00 +17°C° 0 mm 5 mps 752 mmHg 65%

    Tomorrow, 19 September, Thursday

    Time Temperature Precipitation Wind Pressure Humidity
    00:00 +16°C° 0 mm 6 mps 752 mmHg 65%
    01:00 +16°C° 0 mm 6 mps 751 mmHg 65%
    02:00 +16°C° 0 mm 7 mps 751 mmHg 64%
    03:00 +16°C° 0 mm 7 mps 751 mmHg 63%
    04:00 +16°C° 0 mm 7 mps 751 mmHg 62%
    05:00 +16°C° 0 mm 7 mps 752 mmHg 61%
    06:00 +16°C° 0 mm 7 mps 753 mmHg 57%
    07:00 +16°C° 0 mm 6 mps 753 mmHg 54%
    08:00 +16°C° 0 mm 6 mps 754 mmHg 50%
    09:00 +15°C° 0 mm 6 mps 755 mmHg 47%
    10:00 +15°C° 0 mm 6 mps 755 mmHg 43%
    11:00 +14°C° 0 mm 6 mps 755 mmHg 40%
    12:00 +15°C° 0 mm 6 mps 755 mmHg 37%
    13:00 +16°C° 0 mm 6 mps 756 mmHg 34%
    14:00 +17°C° 0 mm 6 mps 756 mmHg 31%
    15:00 +16°C° 0 mm 5 mps 756 mmHg 32%
    16:00 +16°C° 0 mm 5 mps 757 mmHg 33%
    17:00 +15°C° 0 mm 5 mps 757 mmHg 34%
    18:00 +14°C° 0 mm 5 mps 758 mmHg 33%
    19:00 +13°C° 0 mm 4 mps 759 mmHg 32%
    20:00 +13°C° 0 mm 4 mps 760 mmHg 30%
    21:00 +12°C° 0 mm 4 mps 760 mmHg 31%
    22:00 +12°C° 0 mm 3 mps 761 mmHg 32%
    23:00 +11°C° 0 mm 3 mps 762 mmHg 33%

    Day after tomorrow, 20 September, Friday

    Time Temperature Precipitation Wind Pressure Humidity
    00:00 +11°C° 0 mm 3 mps 762 mmHg 34%
    01:00 +10°C° 0 mm 2 mps 762 mmHg 35%
    02:00 +10°C° 0 mm 2 mps 762 mmHg 36%
    03:00 +10°C° 0 mm 2 mps 762 mmHg 37%
    04:00 +9°C° 0 mm 2 mps 762 mmHg 37%
    05:00 +9°C° 0 mm 2 mps 763 mmHg 37%
    06:00 +10°C° 0 mm 2 mps 763 mmHg 36%
    07:00 +12°C° 0 mm 2 mps 763 mmHg 34%
    08:00 +13°C° 0 mm 2 mps 764 mmHg 32%
    09:00 +14°C° 0 mm 2 mps 764 mmHg 29%
    10:00 +16°C° 0 mm 2 mps 764 mmHg 26%
    11:00 +18°C° 0 mm 3 mps 764 mmHg 22%
    12:00 +18°C° 0 mm 3 mps 763 mmHg 23%
    13:00 +19°C° 0 mm 3 mps 763 mmHg 23%
    14:00 +19°C° 0 mm 4 mps 763 mmHg 24%
    15:00 +19°C° 0 mm 4 mps 763 mmHg 26%
    16:00 +19°C° 0 mm 4 mps 763 mmHg 27%
    17:00 +18°C° 0 mm 3 mps 763 mmHg 29%
    18:00 +17°C° 0 mm 3 mps 763 mmHg 32%
    19:00 +16°C° 0 mm 3 mps 763 mmHg 34%
    20:00 +15°C° 0 mm 2 mps 763 mmHg 37%
    21:00 +14°C° 0 mm 3 mps 764 mmHg 38%
    22:00 +14°C° 0 mm 4 mps 764 mmHg 39%
    23:00 +13°C° 0 mm 4 mps 764 mmHg 40%

    21 September, Saturday

    Time Temperature Precipitation Wind Pressure Humidity
    00:00 +13°C° 0 mm 5 mps 764 mmHg 40%
    01:00 +12°C° 0 mm 5 mps 763 mmHg 40%
    02:00 +12°C° 0 mm 5 mps 763 mmHg 40%
    03:00 +10°C° 0 mm 5 mps 763 mmHg 43%
    04:00 +10°C° 0 mm 5 mps 763 mmHg 46%
    05:00 +10°C° 0 mm 6 mps 764 mmHg 49%
    06:00 +10°C° 0 mm 6 mps 764 mmHg 48%
    07:00 +11°C° 0 mm 6 mps 764 mmHg 46%
    08:00 +13°C° 0 mm 6 mps 764 mmHg 45%
    09:00 +15°C° 0 mm 6 mps 764 mmHg 41%
    10:00 +17°C° 0 mm 5 mps 764 mmHg 37%
    11:00 +20°C° 0 mm 5 mps 764 mmHg 33%
    12:00 +21°C° 0 mm 5 mps 763 mmHg 32%
    13:00 +21°C° 0 mm 5 mps 762 mmHg 31%
    14:00 +22°C° 0 mm 5 mps 762 mmHg 31%
    15:00 +22°C° 0 mm 5 mps 762 mmHg 33%
    16:00 +21°C° 0 mm 4 mps 762 mmHg 36%
    17:00 +21°C° 0 mm 4 mps 762 mmHg 38%
    18:00 +20°C° 0 mm 4 mps 762 mmHg 43%
    19:00 +18°C° 0 mm 3 mps 763 mmHg 48%
    20:00 +17°C° 0 mm 3 mps 763 mmHg 54%
    21:00 +17°C° 0 mm 3 mps 764 mmHg 51%
    22:00 +16°C° 0 mm 3 mps 764 mmHg 48%
    23:00 +14°C° 0 mm 4 mps 765 mmHg 46%

    22 September, Sunday

    Time Temperature Precipitation Wind Pressure Humidity
    00:00 +13°C° 0 mm 4 mps 765 mmHg 50%
    01:00 +12°C° 0 mm 5 mps 766 mmHg 54%
    02:00 +10°C° 0 mm 6 mps 767 mmHg 59%
    03:00 +10°C° 0 mm 6 mps 767 mmHg 56%
    04:00 +9°C° 0 mm 5 mps 767 mmHg 53%
    05:00 +9°C° 0 mm 5 mps 768 mmHg 50%
    06:00 +10°C° 0 mm 5 mps 768 mmHg 47%
    07:00 +11°C° 0 mm 4 mps 769 mmHg 45%
    08:00 +12°C° 0 mm 4 mps 770 mmHg 42%
    09:00 +13°C° 0 mm 4 mps 770 mmHg 38%
    10:00 +15°C° 0 mm 4 mps 770 mmHg 33%
    11:00 +17°C° 0 mm 4 mps 770 mmHg 29%
    12:00 +17°C° 0 mm 4 mps 770 mmHg 29%
    13:00 +18°C° 0 mm 4 mps 769 mmHg 28%
    14:00 +17°C° 0 mm 5 mps 769 mmHg 28%
    15:00 +16°C° 0 mm 5 mps 769 mmHg 33%
    16:00 +15°C° 0 mm 6 mps 769 mmHg 38%
    17:00 +14°C° 0 mm 6 mps 769 mmHg 43%
    18:00 +13°C° 0 mm 6 mps 769 mmHg 45%
    19:00 +11°C° 0 mm 6 mps 769 mmHg 48%
    20:00 +11°C° 0 mm 6 mps 769 mmHg 50%
    21:00 +10°C° 0 mm 7 mps 770 mmHg 52%
    22:00 +10°C° 0 mm 7 mps 770 mmHg 54%
    23:00 +10°C° 0 mm 7 mps 770 mmHg 56%

    23 September, Monday

    Time Temperature Precipitation Wind Pressure Humidity
    00:00 +9°C° 0 mm 7 mps 769 mmHg 56%
    01:00 +9°C° 0 mm 7 mps 769 mmHg 56%
    02:00 +9°C° 0 mm 7 mps 769 mmHg 56%
    03:00 +8°C° 0 mm 6 mps 769 mmHg 57%
    04:00 +8°C° 0 mm 5 mps 769 mmHg 58%
    05:00 +8°C° 0 mm 5 mps 769 mmHg 59%
    06:00 +8°C° 0 mm 5 mps 769 mmHg 56%
    07:00 +10°C° 0 mm 4 mps 770 mmHg 53%
    08:00 +11°C° 0 mm 4 mps 770 mmHg 50%
    09:00 +12°C° 0 mm 4 mps 770 mmHg 45%
    10:00 +14°C° 0 mm 4 mps 770 mmHg 39%
    11:00 +17°C° 0 mm 3 mps 769 mmHg 33%
    12:00 +17°C° 0 mm 3 mps 769 mmHg 32%
    13:00 +18°C° 0 mm 3 mps 768 mmHg 30%
    14:00 +19°C° 0 mm 3 mps 768 mmHg 29%
    15:00 +19°C° 0 mm 3 mps 767 mmHg 32%
    16:00 +18°C° 0 mm 3 mps 767 mmHg 35%
    17:00 +18°C° 0 mm 2 mps 767 mmHg 38%
    18:00 +17°C° 0 mm 3 mps 767 mmHg 43%
    19:00 +16°C° 0 mm 3 mps 768 mmHg 48%
    20:00 +14°C° 0 mm 3 mps 768 mmHg 53%
    21:00 +14°C° 0 mm 4 mps 768 mmHg 57%
    22:00 +13°C° 0 mm 4 mps 768 mmHg 61%
    23:00 +13°C° 0 mm 4 mps 768 mmHg 65%
    Show more